Latrobe, PA

8:45 PM EDT on August 24, 2019 (GMT -0400)
Arnold Palmer Regional

Weather History for KLBE - May, 2019

Change the Weather History Date:

Thursday, May 30, 2019

  Actual Average Record
Temperature  
Mean Temperature 68 °F -  
Max Temperature 73 °F 70 °F 89 °F (2006)
Min Temperature 64 °F 51 °F 42 °F (2001)
Cooling Degree Days 4    
Growing Degree Days 18 (Base 50)    
Moisture  
Dew Point 67 °F    
Average Humidity 98    
Maximum Humidity 100    
Minimum Humidity 78    
Precipitation  
Precipitation 0.00 in - - ()
Sea Level Pressure  
Sea Level Pressure 29.80 in    
Wind  
Wind Speed 8 mph (SSW)    
Max Wind Speed 23 mph    
Max Gust Speed 25 mph    
Visibility 9 miles    
Events Rain    
Averages and records for this station are not official NWS values.
T = Trace of Precipitation, MM = Missing Value Source: NWS Daily Summary

Daily Weather History Graph

Daily Weather History Graph

Search for Another Location

Airport or City:

Astronomy

May. 30, 2019 Rise Set
Actual Time 5:51 AM EDT 8:39 PM EDT
Civil Twilight 5:18 AM EDT 9:11 PM EDT
Nautical Twilight 4:38 AM EDT 9:52 PM EDT
Astronomical Twilight 3:52 AM EDT 10:38 PM EDT
Moon 3:56 AM EDT (5/30) 4:45 PM EDT (5/30)
Length of Visible Light 15h 52m
Length of Day
14h 48m
Waning Crescent, 15% of the Moon is Illuminated
May 30
Waning Crescent
Jun 3
New
Jun 10
First Quarter
Jun 17
Full
Jun 25
Last Quarter

Hourly Weather History & Observations

Time (EDT) Temp. Dew Point Humidity Pressure Visibility Wind Dir Wind Speed Gust Speed Precip Events Conditions
12:15 AM 68.0 °F 68.0 °F 100% 29.83 in 8.0 mi Calm Calm - N/A   Overcast
12:35 AM 68.0 °F 68.0 °F 100% 29.82 in 7.0 mi SSW 3.5 mph - N/A   Overcast
12:55 AM 68.0 °F 68.0 °F 100% 29.82 in 4.0 mi SW 5.8 mph - N/A   Mist
1:15 AM 68.0 °F 68.0 °F 100% 29.83 in 8.0 mi SW 9.2 mph - N/A   Unknown
1:35 AM 68.0 °F 68.0 °F 100% 29.82 in 10.0 mi SSW 6.9 mph - N/A   Mostly Cloudy
1:55 AM 68.0 °F 68.0 °F 100% 29.82 in 10.0 mi SSW 9.2 mph - N/A   Overcast
2:15 AM 68.0 °F 68.0 °F 100% 29.82 in 10.0 mi SSW 8.1 mph - N/A   Overcast
2:35 AM 66.2 °F 66.2 °F 100% 29.82 in 10.0 mi SSW 10.4 mph - N/A   Overcast
2:55 AM 66.2 °F 66.2 °F 100% 29.82 in 10.0 mi South 6.9 mph - N/A   Overcast
3:15 AM 66.2 °F 66.2 °F 100% 29.81 in 10.0 mi South 8.1 mph - N/A   Overcast
3:35 AM 66.2 °F 66.2 °F 100% 29.81 in 10.0 mi South 9.2 mph - N/A   Overcast
3:55 AM 66.2 °F 66.2 °F 100% 29.81 in 10.0 mi South 11.5 mph - N/A   Overcast
4:15 AM 66.2 °F 66.2 °F 100% 29.82 in 10.0 mi South 9.2 mph - N/A   Overcast
4:35 AM 66.2 °F 66.2 °F 100% 29.82 in 10.0 mi SSW 9.2 mph - N/A   Overcast
4:55 AM 66.2 °F 66.2 °F 100% 29.82 in 10.0 mi South 8.1 mph - N/A   Overcast
5:15 AM 66.2 °F 66.2 °F 100% 29.82 in 10.0 mi South 9.2 mph - N/A   Overcast
5:35 AM 66.2 °F 66.2 °F 100% 29.82 in 10.0 mi South 8.1 mph - N/A   Overcast
5:55 AM 66.2 °F 66.2 °F 100% 29.82 in 10.0 mi South 8.1 mph - N/A   Overcast
6:51 AM 66.2 °F 66.2 °F 100% 29.81 in 8.0 mi South 10.4 mph - N/A   Overcast
7:51 AM - - N/A% 29.83 in 8.0 mi SW 17.3 mph - N/A   Overcast
8:51 AM 68.0 °F 68.0 °F 100% 29.81 in 8.0 mi SSW 6.9 mph - N/A   Overcast
9:51 AM 66.2 °F 66.2 °F 100% 29.82 in 4.0 mi SSW 11.5 mph - N/A Rain Light Rain
10:51 AM 69.8 °F 69.8 °F 100% 29.81 in 10.0 mi South 5.8 mph - N/A Rain Light Rain
11:53 AM 69.8 °F 69.8 °F 100% 29.81 in 10.0 mi SSW 11.5 mph - N/A   Overcast
12:53 PM 71.6 °F 68.0 °F 88% 29.79 in 10.0 mi SW 16.1 mph - N/A   Overcast
1:53 PM 73.4 °F 66.2 °F 78% 29.77 in 10.0 mi SW 23.0 mph - N/A   Overcast
2:53 PM 71.6 °F 68.0 °F 88% 29.77 in 10.0 mi SSW 11.5 mph - N/A   Overcast
3:50 PM 69.8 °F 68.0 °F 94% 29.76 in 8.0 mi SSW 13.8 mph 25.3 mph N/A   Overcast
4:50 PM 69.8 °F 69.8 °F 100% 29.76 in 8.0 mi SW 11.5 mph 23.0 mph N/A   Overcast
5:50 PM 69.8 °F 66.2 °F 88% 29.73 in 8.0 mi SW 17.3 mph - N/A   Mostly Cloudy
6:50 PM 69.8 °F 68.0 °F 94% 29.74 in 8.0 mi SW 17.3 mph - N/A   Mostly Cloudy
7:50 PM 68.0 °F 66.2 °F 94% 29.77 in 8.0 mi SW 11.5 mph 23.0 mph N/A   Mostly Cloudy
8:50 PM 66.2 °F 66.2 °F 100% 29.79 in 10.0 mi SW 13.8 mph - N/A   Mostly Cloudy
9:50 PM 66.2 °F 66.2 °F 100% 29.79 in 10.0 mi SW 16.1 mph - N/A   Scattered Clouds
10:15 PM - - N/A% 29.80 in 10.0 mi SSW 10.4 mph - N/A   Clear
10:35 PM 64.4 °F 64.4 °F 100% 29.80 in 10.0 mi SSW 10.4 mph - N/A   Clear
10:55 PM 64.4 °F 64.4 °F 100% 29.81 in 10.0 mi SSW 10.4 mph - N/A   Scattered Clouds
11:15 PM 64.4 °F 64.4 °F 100% 29.81 in 10.0 mi SSW 8.1 mph - N/A   Scattered Clouds
11:35 PM 64.4 °F 64.4 °F 100% 29.81 in 10.0 mi SSW 9.2 mph - N/A   Mostly Cloudy
11:55 PM 64.4 °F 64.4 °F 100% 29.82 in 10.0 mi SW 10.4 mph - N/A   Mostly Cloudy